This demonstration page uses our WeatherBlox Daily Observations layout. Learn more.

Left ArrowRight Arrow

Hourly Observations for February 6, 2017

Temp ( °F °C ) Dew Point ( °F °C ) Humidity (%) Winds ( mph kmh ) Pressure ( in mb ) Visibility ( mi km ) Precip ( " mm )
12:53 am 00:53 Cloudy 6 -14.4 1 -17.2 79 79 NNE 8 13 29.94 1014 10 16 0.00 0.00
1:53 am 01:53 Cloudy 6 -14.4 1 -17.2 79 79 NNE 9 15 29.93 1014 10 16 0.00 0.00
2:53 am 02:53 Cloudy 5 -15 0 -17.8 79 79 NNE 9 15 29.93 1014 10 16 0.00 0.00
3:53 am 03:53 Cloudy 5 -15 0 -17.8 79 79 ENE 10 17 29.90 1012 10 16 0.00 0.00
4:53 am 04:53 Cloudy 5 -15 0 -17.8 79 79 ENE 10 17 29.89 1012 10 16 0.00 0.00
5:53 am 05:53 Cloudy 5 -15 1 -17.2 83 83 E 12 19 29.86 1011 10 16 0.00 0.00
6:17 am 06:17 Cloudy with Light Snow 6 -14.4 2 -16.7 83 83 ENE 13 20 29.94 1014 3 4 0.00 0.03
6:29 am 06:29 Cloudy with Light Snow 6 -14.4 2 -16.7 83 83 E 10 17 29.94 1014 2 2 0.00 0.03
6:42 am 06:42 Cloudy with Light Snow 7 -14 1 -17 78 78 ENE 13 20 29.94 1014 2 3 0.00 0.00
6:50 am 06:50 Cloudy with Light Snow 7 -14 1 -17 78 78 ENE 13 20 29.94 1014 1 2 0.00 0.00
6:53 am 06:53 Cloudy with Light Snow 6 -14.4 2 -16.7 83 83 ENE 13 20 29.84 1011 1 2 0.01 0.25
7:12 am 07:12 Cloudy with Light Snow 7 -14 1 -17 78 78 ENE 13 20 29.94 1014 2 2 0.00 0.00
7:37 am 07:37 Cloudy with Light Snow 6 -14.4 2 -16.7 83 83 ENE 14 22 29.94 1014 3 4 0.01 0.25
7:46 am 07:46 Cloudy with Light Snow 7 -14 1 -17 78 78 ENE 13 20 29.94 1014 6 10 0.00 0.00
7:53 am 07:53 Cloudy 6 -14.4 2 -16.7 83 83 ENE 14 22 29.83 1010 9 14 0.01 0.25
8:17 am 08:17 Cloudy with Light Snow 5 -15 1 -17.2 83 83 E 13 20 29.94 1014 2 3 0.00 0.03
8:26 am 08:26 Cloudy with Light Snow 5 -15 1 -17 85 85 E 13 20 29.94 1014 1 1 0.00 0.00
8:43 am 08:43 Cloudy with Light Snow 5 -15 2 -16.7 87 87 ENE 12 19 29.94 1014 2 2 0.01 0.25
8:46 am 08:46 Cloudy with Light Snow 7 -14 1 -17 78 78 ENE 14 22 29.94 1014 3 4 0.00 0.00
8:53 am 08:53 Cloudy with Haze 6 -14.4 1 -17.2 79 79 ENE 14 22 29.83 1010 4 6 0.01 0.25
9:09 am 09:09 Cloudy with Light Snow 6 -14.4 2 -16.7 83 83 E 15 24 29.94 1014 2 3 0.00 0.03
9:33 am 09:33 Cloudy with Light Snow 6 -14.4 2 -16.7 83 83 E 15 24 29.94 1014 1 2 0.00 0.03
9:43 am 09:43 Cloudy with Light Snow 6 -14.4 2 -16.7 83 83 E 14 22 29.94 1014 2 2 0.00 0.03
9:53 am 09:53 Cloudy with Light Snow 6 -14.4 2 -16.7 83 83 E 12 19 29.83 1010 2 2 0.00 0.03
10:09 am 10:09 Cloudy with Light Snow 6 -14.4 2 -16.7 83 83 E 12 19 29.94 1014 3 4 0.00 0.03
10:24 am 10:24 Cloudy with Light Snow 7 -14 1 -17 78 78 E 12 19 29.94 1014 3 5 0.00 0.00
10:38 am 10:38 Cloudy with Light Snow 7 -14 1 -17 78 78 E 7 11 29.97 1015 3 4 0.00 0.00
10:53 am 10:53 Cloudy with Light Snow 7 -13.9 2 -16.7 80 80 ENE 9 15 29.85 1011 3 4 0.00 0.03
11:02 am 11:02 Cloudy with Haze 7 -14 1 -17 78 78 E 7 11 29.97 1015 5 8 0.00 0.00
11:53 am 11:53 Cloudy with Haze 8 -13.3 2 -16.7 76 76 E 9 15 29.84 1011 6 10 0.00 0.03
12:19 pm 12:19 Cloudy with Light Snow 8 -13.3 3 -16.1 80 80 E 10 17 29.94 1014 3 4 0.00 0.03
12:23 pm 12:23 Cloudy with Light Snow 8 -13.3 3 -16.1 80 80 E 10 17 29.94 1014 1 2 0.00 0.03
12:31 pm 12:31 Cloudy with Snow 8 -13.3 4 -15.6 83 83 E 10 17 29.94 1014 0 0 0.01 0.25
12:38 pm 12:38 Mostly Cloudy with Snow 9 -13 3 -16 78 78 E 12 19 29.91 1013 1 1 0.00 0.00
12:53 pm 12:53 Mostly Cloudy with Snow 8 -13.3 4 -15.6 83 83 E 13 20 29.82 1010 1 1 0.03 0.76
1:01 pm 13:01 Mostly Cloudy with Snow 8 -13.3 4 -15.6 83 83 E 12 19 29.91 1013 0 0 0.00 0.03
1:13 pm 13:13 Mostly Cloudy with Snow 8 -13.3 4 -15.6 83 83 E 14 22 29.91 1013 1 1 0.02 0.51
1:53 pm 13:53 Mostly Cloudy with Light Snow 9 -12.8 4 -15.6 80 80 E 14 22 29.79 1009 1 1 0.04 1.02
1:57 pm 13:57 Mostly Cloudy with Light Snow 9 -12.8 4 -15.6 80 80 E 12 19 29.88 1012 1 2 0.00 0.03
2:08 pm 14:08 Cloudy with Light Snow 9 -13 3 -16 78 78 E 14 22 29.91 1013 2 3 0.00 0.00
2:13 pm 14:13 Cloudy with Light Snow 9 -12.8 4 -15.6 80 80 E 14 22 29.88 1012 1 2 0.00 0.03
2:26 pm 14:26 Cloudy with Light Snow 9 -13 3 -16 78 78 E 15 24 29.91 1013 2 3 0.00 0.00
2:40 pm 14:40 Cloudy with Light Snow 9 -13 3 -16 78 78 E 16 26 29.91 1013 3 5 0.00 0.00
2:53 pm 14:53 Cloudy with Haze 8 -13.3 3 -16.1 80 80 E 16 26 29.80 1009 6 10 0.00 0.03
3:50 pm 15:50 Cloudy with Light Snow 9 -13 3 -16 78 78 ESE 9 15 29.94 1014 2 3 0.00 0.00
3:53 pm 15:53 Cloudy with Light Snow 8 -13.3 3 -16.1 80 80 E 10 17 29.85 1011 2 3 0.00 0.03
4:01 pm 16:01 Cloudy with Light Snow 8 -13.3 3 -16.1 80 80 E 15 24 29.94 1014 3 4 0.00 0.03
4:09 pm 16:09 Cloudy with Light Snow 8 -13.3 2 -16.7 76 76 E 14 22 29.94 1014 4 6 0.00 0.03
4:21 pm 16:21 Cloudy with Light Snow 8 -13.3 3 -16.1 80 80 E 15 24 29.91 1013 6 10 0.01 0.25
4:53 pm 16:53 Mostly Cloudy 7 -13.9 2 -16.7 80 80 E 10 17 29.86 1011 10 16 0.01 0.25
5:38 pm 17:38 Cloudy 7 -14 1 -17 78 78 E 8 13 29.97 1015 10 16 0.00 0.00
5:53 pm 17:53 Cloudy 5 -15 1 -17.2 83 83 ENE 10 17 29.87 1012 10 16 0.00 0.00
6:32 pm 18:32 Cloudy 7 -14 1 -17 78 78 ENE 6 9 29.97 1015 10 16 0.00 0.00
6:53 pm 18:53 Cloudy 6 -14.4 2 -16.7 83 83 ENE 7 11 29.90 1013 10 16 0.00 0.00
7:53 pm 19:53 Mostly Clear 4 -15.6 1 -17.2 88 88 ESE 3 6 29.91 1013 10 16 0.00 0.00
8:53 pm 20:53 Partly Cloudy 5 -15 1 -17.2 83 83 Calm 29.91 1013 10 16 0.00 0.00
9:53 pm 21:53 Mostly Cloudy 4 -15.6 0 -17.8 83 83 Calm 29.96 1014 10 16 0.00 0.00
10:50 pm 22:50 Mostly Cloudy -6 -21 -6 -21 100 100 E 6 9 30.09 1019 10 16 0.00 0.00
10:53 pm 22:53 Mostly Cloudy -6 -21.1 -7 -21.7 95 95 E 5 7 29.96 1014 10 16 0.00 0.00
11:11 pm 23:11 Partly Cloudy -7 -21.7 -8 -22.2 96 96 Calm 30.15 1021 10 16 0.00 0.00
11:42 pm 23:42 Mostly Cloudy -2 -19 -6 -21 84 84 WNW 5 7 30.12 1020 10 16 0.00 0.00
11:49 pm 23:49 Cloudy -2 -19 -6 -21 84 84 NW 5 7 30.12 1020 9 14 0.00 0.00
11:53 pm 23:53 Cloudy with Mist and Fog -3 -19.4 -5 -20.6 90 90 NW 5 7 30.01 1016 6 10 0.00 0.00

Powered by AerisWeather